• în România
  • Lista ţărilor
  • Pe 7 zile
  • Temperatura apei
  • Hartă satelitară
  • Meteo pe hartă
  • Widget-uri
  • user-avatar
    Intrare

    Meteo pe oră la U-Mariy

    Astăzi, 18 Octombrie, Joi

    Timp Temperatura Precipitaţii Vânt Presiune Umiditate
    00:00 +1°C° 0 mm 4 m/s 744 mmHg 81%
    01:00 +1°C° 0 mm 4 m/s 745 mmHg 83%
    02:00 0°C° 0 mm 4 m/s 745 mmHg 85%
    03:00 0°C° 0 mm 4 m/s 745 mmHg 86%
    04:00 0°C° 0 mm 3 m/s 745 mmHg 90%
    05:00 0°C° 0 mm 3 m/s 745 mmHg 91%
    06:00 -1°C° 0 mm 4 m/s 745 mmHg 91%
    07:00 -1°C° 0 mm 4 m/s 745 mmHg 92%
    08:00 0°C° 0 mm 4 m/s 746 mmHg 89%
    09:00 0°C° 0 mm 4 m/s 746 mmHg 85%
    10:00 +1°C° 0 mm 4 m/s 746 mmHg 82%
    11:00 +1°C° 0 mm 4 m/s 746 mmHg 80%
    12:00 +3°C° 0 mm 4 m/s 746 mmHg 78%
    13:00 +3°C° 0 mm 4 m/s 746 mmHg 75%
    14:00 +3°C° 0 mm 4 m/s 746 mmHg 75%
    15:00 +3°C° 0 mm 3 m/s 746 mmHg 75%
    16:00 +3°C° 0 mm 3 m/s 746 mmHg 75%
    17:00 +4°C° 0 mm 2 m/s 746 mmHg 79%
    18:00 +3°C° 0 mm 2 m/s 746 mmHg 82%
    19:00 +4°C° 0 mm 1 m/s 746 mmHg 86%
    20:00 +2°C° 0 mm 2 m/s 745 mmHg 88%
    21:00 +2°C° 0 mm 2 m/s 745 mmHg 89%
    22:00 +2°C° 0 mm 2 m/s 745 mmHg 90%
    23:00 +3°C° 0 mm 2 m/s 744 mmHg 89%

    Mâine, 19 Octombrie, Vineri

    Timp Temperatura Precipitaţii Vânt Presiune Umiditate
    00:00 +3°C° 0 mm 2 m/s 744 mmHg 87%
    01:00 +3°C° 0 mm 3 m/s 743 mmHg 86%
    02:00 +3°C° 0 mm 3 m/s 743 mmHg 86%
    03:00 +3°C° 0 mm 4 m/s 743 mmHg 86%
    04:00 +3°C° 0 mm 4 m/s 742 mmHg 86%
    05:00 +3°C° 0 mm 4 m/s 742 mmHg 88%
    06:00 +3°C° 0 mm 4 m/s 742 mmHg 90%
    07:00 +4°C° 0 mm 3 m/s 741 mmHg 92%
    08:00 +4°C° 0 mm 3 m/s 741 mmHg 92%
    09:00 +4°C° 0 mm 3 m/s 741 mmHg 92%
    10:00 +5°C° 0 mm 3 m/s 741 mmHg 91%
    11:00 +5°C° 0 mm 3 m/s 741 mmHg 91%
    12:00 +7°C° 0 mm 3 m/s 741 mmHg 90%
    13:00 +7°C° 0 mm 3 m/s 741 mmHg 89%
    14:00 +7°C° 0 mm 3 m/s 741 mmHg 90%
    15:00 +7°C° 0 mm 3 m/s 741 mmHg 90%
    16:00 +7°C° 0 mm 3 m/s 741 mmHg 90%
    17:00 +7°C° 0 mm 3 m/s 741 mmHg 91%
    18:00 +7°C° 0 mm 3 m/s 741 mmHg 92%
    19:00 +7°C° 0 mm 3 m/s 740 mmHg 92%
    20:00 +7°C° 0 mm 3 m/s 740 mmHg 93%
    21:00 +7°C° 0 mm 3 m/s 740 mmHg 93%
    22:00 +7°C° 0 mm 3 m/s 740 mmHg 94%
    23:00 +7°C° 0 mm 3 m/s 740 mmHg 94%

    Poimâine, 20 Octombrie, Sâmbătă

    Timp Temperatura Precipitaţii Vânt Presiune Umiditate
    00:00 +7°C° 0 mm 3 m/s 739 mmHg 94%
    01:00 +6°C° 0 mm 4 m/s 739 mmHg 94%
    02:00 +6°C° 0.5 mm 4 m/s 739 mmHg 95%
    03:00 +7°C° 0.5 mm 4 m/s 739 mmHg 96%
    04:00 +7°C° 0.5 mm 4 m/s 739 mmHg 96%
    05:00 +7°C° 0.9 mm 4 m/s 738 mmHg 96%
    06:00 +7°C° 0.9 mm 4 m/s 738 mmHg 96%
    07:00 +7°C° 0.9 mm 4 m/s 738 mmHg 96%
    08:00 +7°C° 1.7 mm 4 m/s 737 mmHg 96%
    09:00 +7°C° 1.7 mm 4 m/s 737 mmHg 96%
    10:00 +7°C° 1.7 mm 4 m/s 737 mmHg 96%
    11:00 +7°C° 1.9 mm 4 m/s 737 mmHg 95%
    12:00 +7°C° 1.9 mm 4 m/s 737 mmHg 94%
    13:00 +8°C° 1.9 mm 4 m/s 737 mmHg 93%
    14:00 +8°C° 0.5 mm 4 m/s 737 mmHg 89%
    15:00 +8°C° 0.5 mm 4 m/s 737 mmHg 86%
    16:00 +8°C° 0.5 mm 4 m/s 737 mmHg 82%
    17:00 +7°C° 0 mm 4 m/s 738 mmHg 84%
    18:00 +7°C° 0 mm 3 m/s 739 mmHg 86%
    19:00 +5°C° 0 mm 3 m/s 739 mmHg 87%
    20:00 +4°C° 0 mm 3 m/s 739 mmHg 88%
    21:00 +4°C° 0 mm 3 m/s 740 mmHg 89%
    22:00 +3°C° 0 mm 3 m/s 740 mmHg 90%
    23:00 +3°C° 0 mm 3 m/s 741 mmHg 91%

    21 Octombrie, Duminică

    Timp Temperatura Precipitaţii Vânt Presiune Umiditate
    00:00 +3°C° 0 mm 3 m/s 741 mmHg 91%
    01:00 +3°C° 0 mm 3 m/s 741 mmHg 91%
    02:00 +3°C° 0 mm 3 m/s 741 mmHg 92%
    03:00 +2°C° 0 mm 3 m/s 742 mmHg 93%
    04:00 +2°C° 0 mm 3 m/s 742 mmHg 94%
    05:00 +3°C° 0 mm 2 m/s 742 mmHg 95%
    06:00 +2°C° 0 mm 2 m/s 743 mmHg 95%
    07:00 +2°C° 0 mm 2 m/s 743 mmHg 96%
    08:00 +3°C° 0 mm 2 m/s 743 mmHg 93%
    09:00 +4°C° 0 mm 2 m/s 744 mmHg 91%
    10:00 +5°C° 0 mm 2 m/s 744 mmHg 88%
    11:00 +5°C° 0 mm 2 m/s 744 mmHg 86%
    12:00 +6°C° 0 mm 2 m/s 744 mmHg 84%
    13:00 +6°C° 0 mm 2 m/s 745 mmHg 81%
    14:00 +6°C° 0 mm 2 m/s 745 mmHg 82%
    15:00 +6°C° 0 mm 2 m/s 745 mmHg 82%
    16:00 +6°C° 0 mm 2 m/s 745 mmHg 82%
    17:00 +7°C° 0.1 mm 1 m/s 745 mmHg 84%
    18:00 +6°C° 0.1 mm 1 m/s 745 mmHg 85%
    19:00 +6°C° 0.1 mm 1 m/s 746 mmHg 86%
    20:00 +5°C° 0 mm 1 m/s 746 mmHg 88%
    21:00 +5°C° 0 mm 1 m/s 746 mmHg 89%
    22:00 +4°C° 0 mm 1 m/s 746 mmHg 91%
    23:00 +4°C° 0 mm 1 m/s 746 mmHg 91%

    22 Octombrie, Luni

    Timp Temperatura Precipitaţii Vânt Presiune Umiditate
    00:00 +3°C° 0 mm 1 m/s 746 mmHg 91%
    01:00 +3°C° 0 mm 1 m/s 746 mmHg 92%
    02:00 +2°C° 0 mm 0 m/s 747 mmHg 91%
    03:00 +2°C° 0 mm 0 m/s 747 mmHg 91%
    04:00 +1°C° 0 mm 0 m/s 747 mmHg 91%
    05:00 +1°C° 0 mm 0 m/s 747 mmHg 91%
    06:00 +1°C° 0 mm 0 m/s 747 mmHg 92%
    07:00 +1°C° 0 mm 0 m/s 747 mmHg 92%
    08:00 +2°C° 0 mm 0 m/s 747 mmHg 88%
    09:00 +3°C° 0 mm 0 m/s 747 mmHg 84%
    10:00 +5°C° 0 mm 1 m/s 747 mmHg 80%
    11:00 +6°C° 0 mm 1 m/s 747 mmHg 77%
    12:00 +6°C° 0 mm 1 m/s 747 mmHg 74%
    13:00 +7°C° 0 mm 1 m/s 747 mmHg 71%
    14:00 +7°C° 0 mm 1 m/s 747 mmHg 74%
    15:00 +7°C° 0 mm 1 m/s 746 mmHg 76%
    16:00 +7°C° 0 mm 1 m/s 746 mmHg 79%
    17:00 +6°C° 0 mm 1 m/s 746 mmHg 82%
    18:00 +5°C° 0 mm 2 m/s 746 mmHg 84%
    19:00 +4°C° 0 mm 2 m/s 746 mmHg 87%
    20:00 +4°C° 0 mm 2 m/s 746 mmHg 88%
    21:00 +4°C° 0 mm 2 m/s 745 mmHg 88%
    22:00 +3°C° 0 mm 2 m/s 745 mmHg 89%
    23:00 +2°C° 0 mm 3 m/s 745 mmHg 89%

    23 Octombrie, Marţi

    Timp Temperatura Precipitaţii Vânt Presiune Umiditate
    00:00 +2°C° 0 mm 3 m/s 745 mmHg 89%
    01:00 +2°C° 0 mm 3 m/s 744 mmHg 90%
    02:00 +2°C° 0 mm 3 m/s 744 mmHg 89%
    03:00 +2°C° 0 mm 3 m/s 744 mmHg 89%
    04:00 +1°C° 0 mm 4 m/s 743 mmHg 89%
    05:00 +1°C° 0 mm 4 m/s 743 mmHg 87%
    06:00 +1°C° 0 mm 4 m/s 743 mmHg 85%
    07:00 +3°C° 0 mm 4 m/s 743 mmHg 83%
    08:00 +4°C° 0 mm 4 m/s 742 mmHg 81%
    09:00 +3°C° 0 mm 5 m/s 742 mmHg 79%
    10:00 +5°C° 0 mm 5 m/s 742 mmHg 77%
    11:00 +6°C° 0 mm 5 m/s 742 mmHg 76%
    12:00 +7°C° 0 mm 5 m/s 742 mmHg 76%
    13:00 +7°C° 0 mm 5 m/s 742 mmHg 75%
    14:00 +8°C° 0 mm 4 m/s 742 mmHg 76%
    15:00 +8°C° 0 mm 4 m/s 742 mmHg 78%
    16:00 +8°C° 0 mm 4 m/s 742 mmHg 79%
    17:00 +9°C° 0 mm 3 m/s 742 mmHg 80%
    18:00 +9°C° 0 mm 3 m/s 742 mmHg 80%
    19:00 +8°C° 0 mm 3 m/s 742 mmHg 81%
    20:00 +8°C° 0 mm 3 m/s 742 mmHg 81%
    21:00 +8°C° 0 mm 3 m/s 742 mmHg 80%
    22:00 +8°C° 0 mm 3 m/s 741 mmHg 79%
    23:00 +8°C° 0 mm 3 m/s 741 mmHg 79%
    Arată mai mult